Location: Pinawa
(50.1500°N, 95.8830°W)
Time: 19:00:13
(UTC-05:00)

Amateur Radio Satellites - All Passes

Search period start: 21 October 2014 18:30
Search period end: 22 October 2014 18:30
Location: Pinawa, 50.1500°N, 95.8830°W

Satellite Date Start Highest point End Downlink Frequencies (MHz)
Time Altitude Azimuth
Hamsat 21 Oct 18:32:38 18:36:49 62° 259° (W) 18:41:00 145.90 MHz
UOSAT-12 21 Oct 18:34:02 18:38:04 28° 329° (NNW) 18:42:10 437.025 FM, 437.400 FM
SO-50 21 Oct 18:34:11 18:36:49 15° 354° (N) 18:39:28 436.795 FM
KITSAT 1 21 Oct 18:38:42 18:45:15 26° 4° (N) 18:51:48 435.175 FM
AO-40 21 Oct 18:44:04 00:04:38 32° 184° (S) 05:31:34 Beacon 2401.320
Saudisat 1A 21 Oct 18:45:43 18:48:59 20° 246° (WSW) 18:52:14 436.775 MHz
SO-67 21 Oct 19:06:55 19:10:11 42° 71° (ENE) 19:13:28 435.3500 MHz FM
ISS 21 Oct 19:26:20 19:29:42 86° 196° (SSW) 19:33:03 145.800 FM
STRAND 1 21 Oct 19:36:47 19:41:18 30° 94° (E) 19:45:48 ?
OPAL 21 Oct 19:36:58 19:41:49 50° 295° (WNW) 19:46:35 ?
JAS-2 21 Oct 19:53:30 19:57:14 17° 278° (W) 20:01:15 435.800 - 435.900 CW/SSB, 435.910 FM
HO-68 21 Oct 20:08:56 20:15:26 39° 58° (ENE) 20:21:58 435.675 MHz FM
SO-50 21 Oct 20:15:53 20:19:11 18° 19° (NNE) 20:22:30 436.795 FM
UOSAT-12 21 Oct 20:17:05 20:19:45 15° 353° (N) 20:22:25 437.025 FM, 437.400 FM
KITSAT 1 21 Oct 20:35:26 20:43:02 41° 33° (NNE) 20:50:35 435.175 FM
Oscar 11 21 Oct 20:37:26 20:39:37 14° 57° (ENE) 20:41:47 145.825 FM, Beacon 2401.500 USB
SO-67 21 Oct 20:41:14 20:43:23 16° 269° (W) 20:45:33 435.3500 MHz FM
ISS 21 Oct 21:03:20 21:06:06 24° 216° (SW) 21:08:52 145.800 FM
STRAND 1 21 Oct 21:15:45 21:20:40 45° 293° (WNW) 21:25:34 ?
ZACube-1 21 Oct 21:16:10 21:18:57 16° 58° (ENE) 21:21:42 437.345 MHz
OPAL 21 Oct 21:18:43 21:19:36 10° 315° (NW) 21:20:29 ?
UKube-1 21 Oct 21:26:25 21:30:30 41° 67° (ENE) 21:34:36 145.840 MHz, 145.915 MHz
HO-68 21 Oct 21:55:58 22:02:57 55° 259° (WSW) 22:10:01 435.675 MHz FM
SO-50 21 Oct 21:56:10 22:00:50 48° 41° (NE) 22:05:33 436.795 FM
UOSAT-12 21 Oct 21:58:28 22:01:42 18° 18° (NNE) 22:04:55 437.025 FM, 437.400 FM
FUNcube-1 21 Oct 22:00:01 22:04:12 36° 67° (ENE) 22:08:20 145.950 - 145.970 MHz USB
Oscar 11 21 Oct 22:10:49 22:15:10 89° 256° (WSW) 22:19:32 145.825 FM, Beacon 2401.500 USB
RS-15 21 Oct 22:28:34 22:37:37 32° 105° (ESE) 22:46:37 29.354 - 29.394 USB, Beacon 29.352 USB
KITSAT 1 21 Oct 22:31:02 22:39:06 75° 237° (WSW) 22:47:08 435.175 FM
ZACube-1 21 Oct 22:50:10 22:54:47 81° 256° (WSW) 22:59:22 437.345 MHz
UKube-1 21 Oct 23:03:13 23:06:50 25° 266° (W) 23:10:29 145.840 MHz, 145.915 MHz
FUNcube-1 21 Oct 23:36:31 23:40:36 31° 265° (W) 23:44:41 145.950 - 145.970 MHz USB
SO-50 21 Oct 23:36:57 23:41:19 35° 241° (WSW) 23:45:44 436.795 FM
UOSAT-12 21 Oct 23:38:23 23:42:58 46° 41° (NE) 23:47:30 437.025 FM, 437.400 FM
Oscar 11 21 Oct 23:50:42 23:52:01 11° 274° (W) 23:53:21 145.825 FM, Beacon 2401.500 USB
HO-68 21 Oct 23:50:46 23:52:21 11° 280° (W) 23:53:55 435.675 MHz FM
MaSat-1 22 Oct 00:11:51 00:13:11 11° 105° (ESE) 00:14:29 437.345 MHz
KITSAT 1 22 Oct 00:27:56 00:33:12 19° 259° (WSW) 00:38:28 435.175 FM
ZACube-1 22 Oct 00:30:34 00:31:54 11° 275° (W) 00:33:13 437.345 MHz
RS-15 22 Oct 00:37:43 00:48:42 87° 310° (NW) 00:59:46 29.354 - 29.394 USB, Beacon 29.352 USB
UOSAT-12 22 Oct 01:18:46 01:23:03 35° 241° (WSW) 01:27:16 437.025 FM, 437.400 FM
MaSat-1 22 Oct 01:44:20 01:48:28 89° 292° (WNW) 01:52:12 437.345 MHz
JAS-1B 22 Oct 01:45:54 01:50:15 18° 89° (E) 01:55:00 435.800 - 435.900 CW/SSB
Oscar 19 22 Oct 01:49:55 01:53:14 17° 88° (E) 01:56:32 437.125 CW, 437.150 USB
Oscar 16 22 Oct 02:34:08 02:38:58 40° 97° (E) 02:43:46 437.025 USB, Beacon 2401.1428
Uribyol 2 22 Oct 02:48:13 02:52:30 25° 92° (E) 02:56:45 436.500 FM
RS-15 22 Oct 02:52:18 03:02:35 44° 340° (NNW) 03:13:03 29.354 - 29.394 USB, Beacon 29.352 USB
ITAMSAT 1 22 Oct 02:53:21 02:57:44 26° 93° (E) 03:02:04 435.822 SSB
AO-Echo 22 Oct 02:54:55 02:59:45 35° 95° (E) 03:04:36 ?
Gurwin Techsat 1B 22 Oct 02:55:08 02:58:19 16° 87° (E) 03:01:30 435.225 FM
TMSAT-1 22 Oct 03:08:31 03:11:39 16° 87° (E) 03:14:46 436.925 FM
MaSat-1 22 Oct 03:22:23 03:24:39 15° 319° (NW) 03:26:48 437.345 MHz
Oscar 19 22 Oct 03:28:03 03:33:12 77° 287° (WNW) 03:38:18 437.125 CW, 437.150 USB
JAS-1B 22 Oct 03:35:18 03:41:36 88° 107° (ESE) 03:49:03 435.800 - 435.900 CW/SSB
AO-27 22 Oct 03:37:40 03:42:53 60° 102° (ESE) 03:48:03 436.795 MHz FM
OPAL 22 Oct 03:41:32 03:44:33 16° 51° (NE) 03:47:33 ?
Oscar 16 22 Oct 04:13:40 04:18:16 34° 297° (WNW) 04:22:51 437.025 USB, Beacon 2401.1428
Sapphire 22 Oct 04:16:51 04:20:02 16° 105° (ESE) 04:23:14 437.095 MHz 1200 baud AX-25 AFSK
Uribyol 2 22 Oct 04:27:12 04:32:19 55° 292° (WNW) 04:37:22 436.500 FM
ITAMSAT 1 22 Oct 04:32:26 04:37:31 53° 292° (WNW) 04:42:35 435.822 SSB
AO-Echo 22 Oct 04:33:39 04:38:34 41° 294° (WNW) 04:43:31 ?
Gurwin Techsat 1B 22 Oct 04:33:40 04:39:01 87° 286° (WNW) 04:44:21 435.225 FM
PCSat 22 Oct 04:38:17 04:42:38 25° 110° (ESE) 04:47:02 145.825 MHz
Uosat F 22 Oct 04:38:19 04:41:12 15° 88° (E) 04:44:04 435.120 FM
TMSAT-1 22 Oct 04:46:57 04:52:19 87° 286° (WNW) 04:57:37 436.925 FM
RS-15 22 Oct 05:07:58 05:18:10 40° 14° (NNE) 05:28:37 29.354 - 29.394 USB, Beacon 29.352 USB
Oscar 19 22 Oct 05:08:57 05:11:44 15° 307° (NW) 05:14:31 437.125 CW, 437.150 USB
JAS-2 22 Oct 05:09:59 05:14:18 16° 81° (E) 05:18:40 435.800 - 435.900 CW/SSB, 435.910 FM
OPAL 22 Oct 05:17:32 05:22:41 79° 70° (ENE) 05:27:49 ?
AO-27 22 Oct 05:17:50 05:22:02 25° 301° (WNW) 05:26:14 436.795 MHz FM
STRAND 1 22 Oct 05:21:30 05:23:55 13° 51° (NE) 05:26:20 ?
AO-7 22 Oct 05:23:51 05:31:51 48° 100° (E) 05:39:49 29.400 - 29.500 MHz
JAS-1B 22 Oct 05:27:10 05:31:43 22° 305° (NW) 05:36:44 435.800 - 435.900 CW/SSB
Sapphire 22 Oct 05:57:15 06:02:40 85° 124° (SE) 06:08:08 437.095 MHz 1200 baud AX-25 AFSK
Uribyol 2 22 Oct 06:09:09 06:10:42 11° 312° (NW) 06:12:16 436.500 FM
Hamsat 22 Oct 06:14:28 06:17:13 17° 90° (E) 06:19:59 145.90 MHz
ITAMSAT 1 22 Oct 06:14:34 06:15:54 11° 312° (NW) 06:17:14 435.822 SSB
Gurwin Techsat 1B 22 Oct 06:14:54 06:18:16 17° 306° (NW) 06:21:38 435.225 FM
Uosat F 22 Oct 06:15:35 06:20:41 86° 287° (WNW) 06:25:44 435.120 FM
PCSat 22 Oct 06:20:16 06:25:39 65° 310° (NW) 06:31:05 145.825 MHz
TMSAT-1 22 Oct 06:28:08 06:31:31 18° 306° (NW) 06:34:54 436.925 FM
JAS-2 22 Oct 06:53:04 07:00:39 66° 101° (E) 07:08:28 435.800 - 435.900 CW/SSB, 435.910 FM
STRAND 1 22 Oct 06:57:07 07:02:12 68° 71° (ENE) 07:07:20 ?
OPAL 22 Oct 06:58:49 07:02:09 17° 269° (W) 07:05:30 ?
AO-7 22 Oct 07:16:48 07:24:43 51° 302° (WNW) 07:32:39 29.400 - 29.500 MHz
RS-15 22 Oct 07:21:28 07:32:35 74° 44° (NE) 07:44:07 29.354 - 29.394 USB, Beacon 29.352 USB
Sapphire 22 Oct 07:42:13 07:46:46 26° 327° (NNW) 07:51:20 437.095 MHz 1200 baud AX-25 AFSK
Hamsat 22 Oct 07:49:26 07:53:33 57° 288° (WNW) 07:57:39 145.90 MHz
Uosat F 22 Oct 07:55:42 07:58:45 16° 306° (NW) 08:01:48 435.120 FM
SO-67 22 Oct 07:58:38 08:01:37 26° 95° (E) 08:04:34 435.3500 MHz FM
PCSat 22 Oct 08:06:03 08:10:07 21° 333° (NNW) 08:14:11 145.825 MHz
STRAND 1 22 Oct 08:38:11 08:41:54 20° 270° (W) 08:45:38 ?
JAS-2 22 Oct 08:38:34 08:45:18 37° 300° (WNW) 08:52:16 435.800 - 435.900 CW/SSB, 435.910 FM
Saudisat 1A 22 Oct 08:55:27 08:59:24 33° 119° (ESE) 09:03:22 436.775 MHz
AO-7 22 Oct 09:10:47 09:15:42 18° 325° (NW) 09:20:38 29.400 - 29.500 MHz
HO-68 22 Oct 09:18:54 09:24:34 24° 90° (E) 09:30:11 435.675 MHz FM
Sapphire 22 Oct 09:29:24 09:32:08 14° 352° (N) 09:34:51 437.095 MHz 1200 baud AX-25 AFSK
SO-67 22 Oct 09:31:40 09:34:33 25° 293° (WNW) 09:37:24 435.3500 MHz FM
RS-15 22 Oct 09:34:16 09:44:22 43° 249° (WSW) 09:54:52 29.354 - 29.394 USB, Beacon 29.352 USB
MaSat-1 22 Oct 09:51:17 09:54:06 52° 55° (NE) 09:56:37 437.345 MHz
PCSat 22 Oct 09:53:09 09:55:41 13° 359° (N) 09:58:13 145.825 MHz
Oscar 11 22 Oct 09:55:37 09:57:26 12° 87° (E) 09:59:14 145.825 FM, Beacon 2401.500 USB
JAS-2 22 Oct 10:26:25 10:28:22 11° 322° (NW) 10:30:20 435.800 - 435.900 CW/SSB, 435.910 FM
Saudisat 1A 22 Oct 10:34:41 10:38:54 43° 320° (NW) 10:43:08 436.775 MHz
ZACube-1 22 Oct 10:36:22 10:38:42 14° 87° (E) 10:41:01 437.345 MHz
UKube-1 22 Oct 10:45:51 10:49:58 39° 98° (E) 10:54:04 145.840 MHz, 145.915 MHz
HO-68 22 Oct 11:05:50 11:13:04 81° 291° (WNW) 11:20:15 435.675 MHz FM
Sapphire 22 Oct 11:14:27 11:17:52 17° 19° (NNE) 11:21:17 437.095 MHz 1200 baud AX-25 AFSK
FUNcube-1 22 Oct 11:20:38 11:24:40 37° 97° (E) 11:28:35 145.950 - 145.970 MHz USB
Oscar 11 22 Oct 11:29:53 11:34:13 83° 285° (WNW) 11:38:32 145.825 FM, Beacon 2401.500 USB
PCSat 22 Oct 11:37:21 11:41:18 20° 25° (NNE) 11:45:14 145.825 MHz
ZACube-1 22 Oct 12:11:20 12:15:40 71° 287° (WNW) 12:19:52 437.345 MHz
Saudisat 1A 22 Oct 12:16:48 12:19:33 16° 342° (NNW) 12:22:19 436.775 MHz
Oscar 16 22 Oct 12:18:51 12:22:08 17° 55° (NE) 12:25:25 437.025 USB, Beacon 2401.1428
UKube-1 22 Oct 12:22:19 12:26:02 28° 297° (WNW) 12:29:45 145.840 MHz, 145.915 MHz
Uribyol 2 22 Oct 12:35:06 12:37:04 12° 49° (NE) 12:39:02 436.500 FM
AO-Echo 22 Oct 12:37:14 12:39:26 13° 51° (NE) 12:41:40 ?
JAS-1B 22 Oct 12:38:03 12:42:25 23° 55° (NE) 12:46:43 435.800 - 435.900 CW/SSB
ITAMSAT 1 22 Oct 12:40:12 12:42:21 13° 50° (NE) 12:44:30 435.822 SSB
AO-7 22 Oct 12:52:10 12:54:04 11° 21° (NNE) 12:55:58 29.400 - 29.500 MHz
HO-68 22 Oct 12:54:32 12:59:49 23° 312° (NW) 13:05:06 435.675 MHz FM
FUNcube-1 22 Oct 12:57:16 13:00:56 27° 296° (WNW) 13:04:31 145.950 - 145.970 MHz USB
Sapphire 22 Oct 12:57:36 13:02:46 42° 43° (NE) 13:07:55 437.095 MHz 1200 baud AX-25 AFSK
KITSAT 1 22 Oct 13:04:19 13:11:42 41° 112° (ESE) 13:19:06 435.175 FM
Oscar 11 22 Oct 13:07:54 13:09:43 13° 305° (NW) 13:11:31 145.825 FM, Beacon 2401.500 USB
Oscar 19 22 Oct 13:10:51 13:15:37 40° 65° (ENE) 13:20:23 437.125 CW, 437.150 USB
PCSat 22 Oct 13:20:27 13:25:51 60° 49° (NE) 13:31:12 145.825 MHz
AO-27 22 Oct 13:22:29 13:26:41 25° 59° (ENE) 13:30:54 436.795 MHz FM
ZACube-1 22 Oct 13:50:12 13:51:14 11° 307° (NW) 13:52:16 437.345 MHz
Oscar 16 22 Oct 13:55:38 14:00:49 90° 74° (ENE) 14:06:01 437.025 USB, Beacon 2401.1428
SO-50 22 Oct 13:56:20 14:00:06 26° 116° (ESE) 14:03:57 436.795 FM
Oscar 10/S400 22 Oct 13:57:50 14:11:15 22° 147° (SSE) 14:26:56 145.825 - 145.975 CW/USB, Beacon 145.810 USB
Saudisat 1A 22 Oct 13:58:46 14:00:53 13° 7° (N) 14:03:00 436.775 MHz
Uribyol 2 22 Oct 14:10:24 14:15:31 59° 69° (ENE) 14:20:41 436.500 FM
AO-Echo 22 Oct 14:12:24 14:17:16 68° 71° (ENE) 14:22:19 ?
ITAMSAT 1 22 Oct 14:15:43 14:20:51 62° 70° (ENE) 14:26:02 435.822 SSB
Gurwin Techsat 1B 22 Oct 14:20:14 14:25:07 39° 65° (ENE) 14:30:01 435.225 FM
JAS-1B 22 Oct 14:26:45 14:32:41 69° 256° (WSW) 14:38:21 435.800 - 435.900 CW/SSB
TMSAT-1 22 Oct 14:33:15 14:38:06 38° 64° (ENE) 14:42:59 436.925 FM
AO-7 22 Oct 14:37:27 14:44:08 29° 47° (NE) 14:50:51 29.400 - 29.500 MHz
Sapphire 22 Oct 14:41:08 14:46:16 44° 244° (WSW) 14:51:22 437.095 MHz 1200 baud AX-25 AFSK
Oscar 19 22 Oct 14:50:21 14:55:02 34° 264° (W) 14:59:43 437.125 CW, 437.150 USB
KITSAT 1 22 Oct 14:58:49 15:06:50 64° 315° (NW) 15:14:53 435.175 FM
AO-27 22 Oct 15:00:42 15:05:51 59° 258° (WSW) 15:11:03 436.795 MHz FM
PCSat 22 Oct 15:04:22 15:08:57 28° 249° (WSW) 15:13:30 145.825 MHz
ISS 22 Oct 15:23:55 15:27:07 45° 152° (SSE) 15:30:20 145.800 FM
JAS-2 22 Oct 15:30:32 15:32:54 12° 39° (NE) 15:35:20 435.800 - 435.900 CW/SSB, 435.910 FM
UOSAT-12 22 Oct 15:34:23 15:38:09 25° 115° (ESE) 15:41:57 437.025 FM, 437.400 FM
SO-50 22 Oct 15:35:53 15:40:22 56° 317° (NW) 15:45:00 436.795 FM
Oscar 16 22 Oct 15:38:06 15:40:55 15° 273° (W) 15:43:45 437.025 USB, Beacon 2401.1428
Saudisat 1A 22 Oct 15:38:13 15:41:56 25° 31° (NNE) 15:45:38 436.775 MHz
Uribyol 2 22 Oct 15:51:15 15:55:23 23° 268° (W) 15:59:33 436.500 FM
AO-Echo 22 Oct 15:53:09 15:56:35 19° 271° (W) 16:00:06 ?
Uosat F 22 Oct 15:55:28 15:59:58 34° 63° (ENE) 16:04:30 435.120 FM
ITAMSAT 1 22 Oct 15:56:44 16:00:46 22° 269° (W) 16:04:50 435.822 SSB
Gurwin Techsat 1B 22 Oct 16:00:14 16:05:07 37° 264° (W) 16:10:02 435.225 FM
TMSAT-1 22 Oct 16:13:08 16:18:02 38° 264° (W) 16:22:59 436.925 FM
JAS-1B 22 Oct 16:23:57 16:24:34 10° 277° (W) 16:25:12 435.800 - 435.900 CW/SSB
AO-7 22 Oct 16:27:44 16:36:02 89° 69° (ENE) 16:44:23 29.400 - 29.500 MHz
KITSAT 1 22 Oct 16:56:58 17:03:53 30° 342° (NNW) 17:10:49 435.175 FM
ISS 22 Oct 17:00:25 17:03:45 71° 352° (N) 17:07:07 145.800 FM
JAS-2 22 Oct 17:10:27 17:16:09 45° 63° (ENE) 17:22:35 435.800 - 435.900 CW/SSB, 435.910 FM
Hamsat 22 Oct 17:12:10 17:15:28 23° 63° (ENE) 17:18:46 145.90 MHz
UOSAT-12 22 Oct 17:13:19 17:17:58 61° 315° (NW) 17:22:41 437.025 FM, 437.400 FM
Saudisat 1A 22 Oct 17:17:31 17:21:58 76° 232° (SW) 17:26:22 436.775 MHz
SO-50 22 Oct 17:18:35 17:21:55 19° 340° (NNW) 17:25:19 436.795 FM
OPAL 22 Oct 17:24:43 17:26:57 13° 89° (E) 17:29:11 ?
Uosat F 22 Oct 17:34:02 17:38:43 39° 263° (W) 17:43:27 435.120 FM
